Erzurum, Turkey

3:49 AM +03 on September 24, 2017 (GMT +0300)
Erzurum

Weather History for LTCE - March, 2013

Change the Weather History Date:

Sunday, March 10, 2013

  Actual Average Record
Temperature  
Mean Temperature 26 °F -  
Max Temperature 37 °F 42 °F 53 °F (2014)
Min Temperature 15 °F 26 °F -9 °F (1997)
Degree Days  
Heating Degree Days 39    
Moisture  
Dew Point 21 °F    
Average Humidity 84    
Maximum Humidity 100    
Minimum Humidity 49    
Precipitation  
Precipitation 0.00 in 0.05 in - ()
Sea Level Pressure  
Sea Level Pressure 29.93 in    
Wind  
Wind Speed 2 mph ()    
Max Wind Speed 6 mph    
Max Gust Speed -    
Visibility 5.9 miles    
Events      
Averages and records for this station are not official NWS values.
T = Trace of Precipitation, MM = Missing Value Source: Averaged Metar Reports

Daily Weather History Graph

Daily Weather History Graph

Search for Another Location

Airport or City:

Trip Planner

Search our weather history database for the weather conditions in past years. The results will help you decide how hot, cold, wet, or windy it might be!

Date:

Astronomy

Mar. 10, 2013 Rise Set
Actual Time 5:34 AM EET 5:16 PM EET
Civil Twilight 5:07 AM EET 5:43 PM EET
Nautical Twilight 4:36 AM EET 6:15 PM EET
Astronomical Twilight 4:05 AM EET 6:46 PM EET
Moon 4:22 AM EET (3/10) 4:00 PM EET (3/10)
Length of Visible Light 12h 35m
Length of Day
11h 41m
Waning Crescent, 2% of the Moon is Illuminated
Mar 10
Waning Crescent
Mar 11
New
Mar 19
First Quarter
Mar 27
Full
Apr 3
Last Quarter

Hourly Weather History & Observations

Time (EET) Temp. Windchill Dew Point Humidity Pressure Visibility Wind Dir Wind Speed Gust Speed Precip Events Conditions
12:20 AM 21.2 °F - 19.4 °F 93% 29.95 in 6.2 mi Calm Calm - N/A   Scattered Clouds
12:50 AM 19.4 °F 14.3 °F 17.6 °F 93% 29.95 in 6.2 mi WSW 3.5 mph - N/A   Partly Cloudy
1:20 AM 15.8 °F 10.2 °F 14.0 °F 93% 29.95 in 6.2 mi Variable 3.5 mph - N/A   Partly Cloudy
1:50 AM 15.8 °F - 15.8 °F 100% 29.92 in 6.2 mi Calm Calm - N/A   Partly Cloudy
2:00 AM 17 °F - 16 °F 94%  in 12 mi Calm Calm - -   Scattered Clouds
2:20 AM 17.6 °F - 15.8 °F 93% 29.92 in - Variable 1.2 mph - N/A   Clear
2:50 AM 17.6 °F - 15.8 °F 93% 29.92 in - Calm Calm - N/A   Clear
3:20 AM 17.6 °F - 15.8 °F 93% 29.92 in - Calm Calm - N/A   Clear
3:50 AM 19.4 °F - 17.6 °F 93% 29.92 in - Calm Calm - N/A   Clear
4:20 AM 19.4 °F - 17.6 °F 93% 29.92 in - Variable 1.2 mph - N/A   Clear
4:50 AM 19.4 °F - 17.6 °F 93% 29.92 in - Calm Calm - N/A   Clear
5:20 AM 21.2 °F - 19.4 °F 93% 29.92 in 6.2 mi SW 2.3 mph - N/A   Scattered Clouds
5:50 AM 21.2 °F 13.6 °F 19.4 °F 93% 29.92 in 6.2 mi West 5.8 mph - N/A   Scattered Clouds
6:20 AM 21.2 °F 16.4 °F 19.4 °F 93% 29.92 in 6.2 mi NW 3.5 mph - N/A   Mostly Cloudy
6:50 AM 23.0 °F - 19.4 °F 86% 29.95 in 6.2 mi Variable 1.2 mph - N/A   Mostly Cloudy
7:20 AM 23.0 °F - 19.4 °F 86% 29.95 in 6.2 mi Calm Calm - N/A   Mostly Cloudy
7:50 AM 21.2 °F 16.4 °F 19.4 °F 93% 29.95 in 6.2 mi SSE 3.5 mph - N/A   Mostly Cloudy
8:00 AM 22 °F - 20 °F 90%  in 6 mi SSE 3.5 mph - -   Partly Cloudy
8:20 AM 26.6 °F 22.6 °F 21.2 °F 80% 29.95 in 6.2 mi SSE 3.5 mph - N/A   Mostly Cloudy
8:50 AM 26.6 °F 22.6 °F 23.0 °F 86% 29.95 in 6.2 mi West 3.5 mph - N/A   Mostly Cloudy
9:20 AM 35.6 °F - 23.0 °F 60% 29.95 in 6.2 mi Calm Calm - N/A   Scattered Clouds
9:50 AM 30.2 °F - 23.0 °F 75% 29.95 in 6.2 mi Variable 1.2 mph - N/A   Scattered Clouds
10:20 AM 30.2 °F 25.4 °F 23.0 °F 75% 29.95 in 6.2 mi North 4.6 mph - N/A   Mostly Cloudy
10:50 AM 32.0 °F 28.7 °F 23.0 °F 69% 29.95 in 6.2 mi NNW 3.5 mph - N/A   Mostly Cloudy
11:20 AM 32.0 °F 27.5 °F 24.8 °F 75% 29.95 in 6.2 mi NE 4.6 mph - N/A   Mostly Cloudy
11:50 AM 35.6 °F - 24.8 °F 65% 29.92 in 6.2 mi Variable 1.2 mph - N/A   Mostly Cloudy
12:20 PM 33.8 °F 30.8 °F 23.0 °F 65% 29.92 in 6.2 mi ENE 3.5 mph - N/A   Mostly Cloudy
12:50 PM 33.8 °F - 23.0 °F 65% 29.92 in 6.2 mi Variable 2.3 mph - N/A   Scattered Clouds
1:20 PM 35.6 °F - 23.0 °F 60% 29.92 in - Variable 2.3 mph - N/A   Clear
1:50 PM 35.6 °F - 23.0 °F 60% 29.92 in - Variable 2.3 mph - N/A   Clear
2:00 PM 35 °F - 23 °F 49%  in 6 mi NNE 2.3 mph - -  
2:20 PM 33.8 °F 30.8 °F 23.0 °F 65% 29.92 in - NNE 3.5 mph - N/A   Clear
2:50 PM 33.8 °F 30.8 °F 24.8 °F 70% 29.89 in - ENE 3.5 mph - N/A   Clear
3:20 PM 32.0 °F 28.7 °F 24.8 °F 75% 29.92 in - East 3.5 mph - N/A   Clear
3:50 PM 33.8 °F - 24.8 °F 70% 29.92 in - Variable 2.3 mph - N/A   Clear
4:20 PM 32.0 °F - 24.8 °F 75% 29.92 in - Variable 2.3 mph - N/A   Clear
4:50 PM 30.2 °F - 24.8 °F 80% 29.92 in - Calm Calm - N/A   Clear
5:20 PM 28.4 °F 23.3 °F 24.8 °F 86% 29.92 in - NNW 4.6 mph - N/A   Clear
5:50 PM 26.6 °F - 23.0 °F 86% 29.92 in - Variable 1.2 mph - N/A   Clear
6:20 PM 26.6 °F 21.2 °F 23.0 °F 86% 29.92 in - SE 4.6 mph - N/A   Clear
6:50 PM 26.6 °F 21.2 °F 23.0 °F 86% 29.92 in 5.6 mi SW 4.6 mph - N/A   Unknown
7:20 PM 23.0 °F 18.4 °F 21.2 °F 93% 29.92 in 5.6 mi NW 3.5 mph - N/A   Unknown
7:50 PM 23.0 °F - 21.2 °F 93% 29.95 in 5.6 mi Variable 1.2 mph - N/A   Unknown
8:00 PM 22 °F - 22 °F 100%  in 6 mi East 2.3 mph - -   Mist
8:20 PM 23.0 °F 18.4 °F 21.2 °F 93% 29.95 in 4.3 mi SE 3.5 mph - N/A   Unknown
8:50 PM 23.0 °F - 19.4 °F 86% 29.95 in 4.3 mi Variable 1.2 mph - N/A   Unknown
9:20 PM 19.4 °F - 19.4 °F 100% 29.95 in 4.3 mi Variable 1.2 mph - N/A   Unknown
9:50 PM 19.4 °F - 19.4 °F 100% 29.95 in 4.3 mi Variable 1.2 mph - N/A   Unknown
10:20 PM 21.2 °F 16.4 °F 19.4 °F 93% 29.95 in 4.3 mi West 3.5 mph - N/A   Unknown
10:50 PM 19.4 °F - 17.6 °F 93% 29.95 in - West 2.3 mph - N/A   Clear
11:20 PM 17.6 °F - 15.8 °F 93% 29.95 in 3.7 mi Calm Calm - N/A   Unknown
11:50 PM 17.6 °F - 17.6 °F 100% 29.92 in 3.7 mi SSE 2.3 mph - N/A   Unknown